This is the latest recevied weather packets stored in our database for station/object IZ1UKX-13. If no packets are shown the sender has not sent any weather packets the latest 10 day(s).
| Time | Temp. | Humidity | Pressure | Rain* | Wind** | Luminosity | Snow |
|---|---|---|---|---|---|---|---|
| 1778222779 | 12.78° C | 88% | 1024.5 hPa | 0 mm | - | 0 W/m² | - |
| 1778222480 | 12.78° C | 88% | 1024.5 hPa | 0 mm | - | 0 W/m² | - |
| 1778222180 | 12.22° C | 88% | 1024.5 hPa | 0 mm | - | 0 W/m² | - |
| 1778221880 | 12.78° C | 88% | 1024.5 hPa | 0 mm | - | 0 W/m² | - |
| 1778221580 | 12.78° C | 88% | 1024.5 hPa | 0 mm | - | 0 W/m² | - |
| 1778221280 | 13.33° C | 87% | 1024.5 hPa | 0 mm | - | 0 W/m² | - |
| 1778220979 | 12.78° C | 90% | 1024.5 hPa | 0 mm | - | 0 W/m² | - |
| 1778220680 | 12.22° C | 92% | 1024.5 hPa | 0 mm | - | 0 W/m² | - |
| 1778220380 | 11.67° C | 94% | 1024.9 hPa | 0 mm | - | 0 W/m² | - |
| 1778220080 | 11.11° C | 94% | 1024.9 hPa | 0 mm | - | 0 W/m² | - |
| 1778219780 | 10.56° C | 95% | 1024.9 hPa | 0 mm | - | 0 W/m² | - |
| 1778219480 | 10° C | 96% | 1024.9 hPa | 0 mm | - | 0 W/m² | - |
| 1778219179 | 10° C | 96% | 1024.9 hPa | 0 mm | - | 0 W/m² | - |
| 1778218879 | 9.44° C | 97% | 1025.4 hPa | 0 mm | - | 0 W/m² | - |
| 1778218580 | 8.89° C | 97% | 1025.4 hPa | 0 mm | - | 0 W/m² | - |
| 1778218280 | 8.33° C | 97% | 1025.4 hPa | 0 mm | - | 0 W/m² | - |
| 1778217980 | 8.33° C | 97% | 1025.4 hPa | 0 mm | - | 0 W/m² | - |
| 1778217680 | 7.78° C | 97% | 1025.4 hPa | 0 mm | - | 0 W/m² | - |
| 1778217380 | 7.78° C | 97% | 1025.8 hPa | 0 mm | - | 0 W/m² | - |
| 1778217079 | 7.22° C | 97% | 1025.8 hPa | 0 mm | - | 0 W/m² | - |
| 1778216780 | 7.22° C | 97% | 1025.8 hPa | 0 mm | - | 0 W/m² | - |
| 1778216480 | 6.67° C | 97% | 1025.8 hPa | 0 mm | - | 0 W/m² | - |
| 1778216180 | 6.67° C | 97% | 1025.8 hPa | 0 mm | - | 0 W/m² | - |
| 1778215880 | 6.67° C | 97% | 1023.8 hPa | 0 mm | - | 0 W/m² | - |
| 1778215590 | 6.67° C | 97% | 1025.8 hPa | 0 mm | - | 0 W/m² | - |
* Rain latest hour (hover to see other rain measurements)
** Current wind speed in m/s (hover to see current wind gust speed)